FW2924 Weather Reports


time (UTC)temp
C
wind
direction
speed
KPH
gust
KPH
rain 1hr
cm
rain 24hr
cm
rain mn
cm
humidity
%
barometer
mb
20260506144655 18 255 0.0 4.8 0.00 1.22 1.12 66 1002.9
20260506143610 18 141 1.6 3.2 0.00 1.22 1.12 65 1002.7
20260506142607 19 124 1.6 3.2 0.00 1.22 1.12 64 1002.8
20260506141605 20 177 1.6 4.8 0.00 1.22 1.12 62 1002.9
20260506140600 20 135 3.2 3.2 0.00 1.22 1.12 60 1003.0
20260506135557 21 306 3.2 6.4 0.00 1.22 1.12 60 1003.1
20260506134553 23 165 1.6 3.2 0.00 1.22 1.12 54 1003.1
20260506133551 21 190 1.6 4.8 0.00 1.22 1.12 63 1003.3
20260506132548 19 311 3.2 6.4 0.00 1.22 1.12 63 1003.2
20260506131605 20 253 3.2 6.4 0.00 1.22 1.12 62 1003.3
20260506130601 20 215 1.6 4.8 0.00 1.22 1.12 63 1003.3
20260506125538 20 241 1.6 4.8 0.00 1.22 1.12 64 1003.5
20260506124533 19 238 1.6 3.2 0.00 1.22 1.12 64 1003.4
20260506123529 18 289 3.2 6.4 0.00 1.22 1.12 63 1003.3
20260506122526 20 282 3.2 6.4 0.00 1.22 1.12 60 1003.4
20260506121522 21 315 1.6 4.8 0.00 1.22 1.12 61 1003.4
20260506120519 20 315 3.2 4.8 0.00 1.22 1.12 67 1003.3
20260506115516 18 315 3.2 6.4 0.00 1.22 1.12 70 1003.3
20260506114613 17 312 3.2 6.4 0.00 1.22 1.12 72 1003.4
20260506113631 17 275 3.2 6.4 0.00 1.22 1.12 72 1003.3
20260506112606 17 270 3.2 4.8 0.00 1.22 1.12 71 1003.4
20260506111603 17 261 3.2 6.4 0.00 1.22 1.12 65 1003.6
20260506110559 18 267 3.2 6.4 0.00 1.22 1.12 65 1003.6
20260506105558 19 277 3.2 6.4 0.00 1.22 1.12 66 1003.7
20260506104553 18 150 0.0 3.2 0.00 1.22 1.12 71 1003.6
20260506103543 17 141 1.6 4.8 0.00 1.22 1.12 70 1003.8
20260506102541 17 270 1.6 3.2 0.00 1.22 1.12 69 1003.7
20260506101532 18 235 1.6 4.8 0.00 1.22 1.12 67 1003.5
20260506100531 20 270 1.6 3.2 0.00 1.22 1.12 71 1003.5
20260506095600 18 0.0 3.2 0.00 1.22 1.12 79 1003.3
20260506094518 15 0.0 0.0 0.00 1.22 1.12 82 1003.2
20260506093608 15 0.0 1.6 0.00 1.22 1.12 81 1003.3
20260506092604 15 270 0.0 3.2 0.00 1.22 1.12 81 1003.3
20260506091556 15 231 1.6 3.2 0.00 1.22 1.12 81 1003.2
20260506090553 16 0.0 0.0 0.00 1.22 1.12 84 1003.1
20260506085543 15 0.0 1.6 0.00 1.22 1.12 85 1003.1
20260506084601 15 0.0 1.6 0.00 1.22 1.12 90 1002.8
20260506083530 15 0.0 1.6 0.00 1.22 1.12 93 1002.8
20260506082527 14 0.0 0.0 0.00 1.22 1.12 94 1002.8
20260506081539 14 135 0.0 3.2 0.00 1.22 1.12 96 1002.8
20260506080615 14 0.0 0.0 0.00 1.22 1.12 97 1002.7
20260506072550 13 0.0 3.2 0.00 1.22 1.12 97 1002.5
20260506071543 12 0.0 0.0 0.00 1.22 1.12 97 1002.5
20260506070538 12 259 0.0 3.2 0.00 1.22 1.12 96 1002.6
20260506061606 12 266 1.6 4.8 0.00 1.22 1.12 98 1002.6
20260506060556 12 315 1.6 3.2 0.00 1.22 1.12 98 1002.5
20260506050521 12 283 0.0 3.2 0.13 1.27 1.12 99 1001.7
20260506044628 12 0.0 0.0 0.15 1.27 1.09 99 1001.6
20260506043606 12 148 1.6 3.2 0.15 1.27 1.09 99 1001.6
20260506042616 12 0.0 3.2 0.13 1.19 1.02 99 1001.8
20260506041552 12 0.0 3.2 0.13 1.17 0.99 99 1001.5
20260506040544 12 0.0 0.0 0.15 1.17 0.99 99 1001.5
20260506035543 12 0.0 0.0 0.18 1.14 0.97 99 1001.4
20260506034532 12 0.0 0.0 0.15 1.12 0.94 99 1001.5
20260506033529 12 0.0 3.2 0.15 1.12 0.94 99 1001.6
20260506032540 12 0.0 0.0 0.15 1.09 0.89 98 1001.6
20260506031538 12 0.0 1.6 0.13 1.04 0.86 98 1001.6
20260506030608 12 0.0 0.0 0.18 1.02 0.84 98 1001.7
20260506025626 12 0.0 1.6 0.18 0.99 0.79 98 1001.7
20260506024556 13 0.0 1.6 0.23 0.99 0.79 98 1001.7
20260506023552 13 0.0 3.2 0.30 0.99 0.79 97 1001.8
20260506022543 13 135 0.0 3.2 0.30 0.97 0.76 97 1001.8
20260506021540 13 135 0.0 3.2 0.33 0.97 0.76 97 1002.0
20260506020531 13 0.0 0.0 0.28 0.86 0.66 97 1002.1
20260506015529 13 225 0.0 3.2 0.23 0.81 0.61 96 1002.1
20260506014520 13 0.0 3.2 0.18 0.76 0.53 96 1002.2
20260506013516 13 0.0 1.6 0.13 0.69 0.48 96 1002.2
20260506012606 13 0.0 1.6 0.10 0.66 0.46 96 1002.3
20260506011603 13 0.0 1.6 0.10 0.64 0.43 96 1002.4
20260506010554 13 0.0 1.6 0.10 0.61 0.38 95 1002.4
20260506005553 13 135 0.0 3.2 0.05 0.56 0.36 95 1002.5
20260506004544 13 0.0 1.6 0.10 0.56 0.36 95 1002.7
20260506003540 13 0.0 1.6 0.10 0.56 0.36 95 1002.8
20260506002532 13 120 0.0 3.2 0.13 0.56 0.36 95 1002.9
20260506001528 13 154 0.0 3.2 0.10 0.53 0.33 95 1002.9
20260506000518 13 0.0 1.6 0.10 0.51 0.30 95 1003.0
20260505235615 13 146 0.0 3.2 0.13 0.51 0.30 95 1003.1
20260505234606 13 22 0.0 4.8 0.13 0.48 0.28 95 1003.2
20260505233605 13 0.0 1.6 0.15 0.48 0.28 95 1003.2
20260505232554 13 237 0.0 3.2 0.15 0.46 0.23 94 1003.2
20260505231612 14 0.0 0.0 0.15 0.46 0.23 94 1003.2
20260505230604 14 0.0 0.0 0.20 0.43 0.20 93 1003.1
20260505225540 14 0.0 1.6 0.18 0.38 0.18 93 1003.2
20260505224530 14 0.0 1.6 0.18 0.36 0.15 92 1003.4
20260505223527 14 0.0 1.6 0.18 0.33 0.13 92 1003.5
20260505222519 14 0.0 1.6 0.15 0.30 0.10 91 1003.6
20260505221614 14 0.0 1.6 0.18 0.30 0.10 90 1003.8
20260505220605 14 0.0 0.0 0.10 0.20 0.00 90 1003.9
20260505215557 14 0.0 0.0 0.13 0.20 0.20 89 1004.0
20260505214553 15 0.0 0.0 0.10 0.18 0.18 88 1004.3
20260505213544 15 0.0 0.0 0.05 0.15 0.15 87 1004.4
20260505212540 15 0.0 0.0 0.05 0.15 0.15 87 1004.5
20260505211530 15 0.0 0.0 0.03 0.13 0.13 86 1004.4
20260505210529 15 0.0 0.0 0.03 0.13 0.13 85 1004.4
20260505205518 15 315 0.0 3.2 0.00 0.10 0.10 84 1004.4
20260505204616 15 0.0 0.0 0.00 0.10 0.10 83 1004.6
20260505203606 15 0.0 1.6 0.00 0.10 0.10 82 1004.5
20260505202623 15 292 1.6 4.8 0.00 0.10 0.10 82 1004.3
20260505201556 16 281 4.8 9.7 0.00 0.13 0.10 82 1004.0
20260505200553 16 315 3.2 6.4 0.00 0.13 0.10 81 1003.9
20260505195542 16 288 3.2 4.8 0.00 0.13 0.10 81 1003.8
20260505194539 16 248 4.8 9.7 0.00 0.13 0.10 80 1003.9
20260505193530 16 194 3.2 6.4 0.00 0.13 0.10 80 1004.0
20260505192528 16 187 1.6 4.8 0.00 0.13 0.10 79 1004.1
20260505191518 16 242 1.6 4.8 0.00 0.13 0.10 78 1004.1
20260505190615 16 276 3.2 6.4 0.00 0.13 0.10 77 1004.1
20260505185606 16 301 3.2 12.9 0.00 0.13 0.10 76 1004.1
20260505184602 17 304 3.2 6.4 0.00 0.13 0.10 75 1004.2
20260505183555 17 248 1.6 6.4 0.00 0.13 0.10 74 1004.3
20260505182550 17 253 1.6 6.4 0.00 0.13 0.10 73 1004.4
20260505181541 17 285 3.2 6.4 0.00 0.13 0.10 70 1004.4
20260505180554 17 315 3.2 6.4 0.00 0.13 0.10 70 1004.5
20260505175529 18 320 3.2 6.4 0.00 0.13 0.10 70 1004.6
20260505174520 18 304 3.2 6.4 0.00 0.13 0.10 66 1004.5
20260505173517 18 264 1.6 3.2 0.00 0.13 0.10 62 1004.6
20260505172632 19 0.0 1.6 0.00 0.13 0.10 61 1004.5
20260505171606 19 0.0 3.2 0.00 0.13 0.10 61 1004.5
20260505170557 19 0.0 1.6 0.00 0.13 0.10 61 1004.6
20260505165613 20 135 0.0 3.2 0.00 0.13 0.10 61 1004.6
20260505164545 20 195 0.0 3.2 0.00 0.13 0.10 60 1004.7
20260505163542 20 130 1.6 3.2 0.00 0.13 0.10 60 1004.7
20260505162532 20 180 0.0 3.2 0.00 0.13 0.10 61 1004.8
20260505161529 21 135 0.0 3.2 0.00 0.13 0.10 61 1004.7
20260505160520 20 0 1.6 3.2 0.00 0.13 0.10 61 1004.7
20260505152557 21 225 0.0 4.8 0.00 0.13 0.10 60 1005.3
20260505151554 22 162 1.6 3.2 0.00 0.13 0.10 55 1005.3
20260505150546 22 118 0.0 4.8 0.00 0.13 0.10 55 1005.5